Date String (YYYY-MM-DD hh:mm:ss) UTC,Instrument flags,Ambient pressure (hPa),Sample flow (lpm),Bypass flow (lpm),Sample temperature (°C),Ambient temperature (°C),ASC tube jacket temperature (°C),LED temperature (°C),Box temperature (°C),Sample RH (%),Span deviation,Mass concentration (μg/m³),Mass concentration (μg/m³),Mass concentration (μg/m³)
DateTimeUTC,F1_M11,P_M11,Q1_M11,Q2_M11,T1_M11,T2_M11,T3_M11,T4_M11,T5_M11,U1_M11,ZSPAN_M11,X0_M11,X2_M11,X1_M11
2021-10-30 17:00:00,,0825.2,5.01,0.00,30.3,29.4,00.0,39.3,32.1,09.9,0000.0,0007.93,0001.62,0000.83
2021-10-30 17:01:00,,0825.2,4.99,0.00,30.3,29.4,00.0,39.3,32.1,10.0,0000.0,0007.82,0001.64,0000.84
2021-10-30 17:02:00,,0825.2,5.02,0.00,30.4,29.5,00.0,39.3,32.1,10.0,0000.0,0006.58,0001.65,0000.86
2021-10-30 17:03:00,,0825.2,4.99,0.00,30.4,29.5,00.0,39.3,32.1,10.1,0000.0,0006.18,0001.68,0000.89
2021-10-30 17:04:00,,0825.3,5.00,0.00,30.4,29.6,00.0,39.3,32.2,10.0,0000.0,0006.32,0001.82,0000.90
2021-10-30 17:05:00,,0825.2,5.01,0.00,30.4,29.6,00.0,39.4,32.2,09.9,0000.0,0006.75,0001.93,0000.93
2021-10-30 17:06:00,,0825.2,5.00,0.00,30.5,29.7,00.0,39.4,32.2,09.9,0000.0,0007.11,0002.00,0000.94
2021-10-30 17:07:00,,0825.2,5.00,0.00,30.5,29.7,00.0,39.4,32.3,10.1,0000.0,0007.52,0002.04,0000.95
2021-10-30 17:08:00,,0825.2,4.99,0.00,30.5,29.7,00.0,39.4,32.3,10.0,0000.0,0007.75,0002.07,0000.97
2021-10-30 17:09:00,,0825.2,4.99,0.00,30.5,29.7,00.0,39.4,32.3,10.0,0000.0,0007.82,0002.16,0000.98
2021-10-30 17:10:00,,0825.2,5.01,0.00,30.6,29.8,00.0,39.5,32.3,10.0,0000.0,0007.86,0002.18,0001.00
2021-10-30 17:11:00,,0825.2,4.99,0.00,30.6,29.8,00.0,39.5,32.4,10.0,0000.0,0008.43,0002.31,0001.03
2021-10-30 17:12:00,,0825.2,5.00,0.00,30.6,29.8,00.0,39.5,32.4,10.0,0000.0,0008.63,0002.36,0001.04
2021-10-30 17:13:00,,0825.2,4.99,0.00,30.6,29.7,00.0,39.5,32.4,09.9,0000.0,0008.76,0002.41,0001.05
2021-10-30 17:14:00,,0825.2,5.00,0.00,30.6,28.2,00.0,39.5,32.1,09.9,0000.0,0008.98,0002.45,0001.05
2021-10-30 17:15:00,,0825.2,4.99,0.00,30.4,26.7,00.0,39.5,31.8,10.0,0000.0,0009.04,0002.47,0001.05
2021-10-30 17:16:00,,0825.2,5.00,0.00,30.4,26.8,00.0,39.5,31.8,10.1,0000.0,0009.04,0002.51,0001.06
2021-10-30 17:17:00,,0825.2,5.00,0.00,30.3,27.2,00.0,39.4,31.8,10.4,0000.0,0009.07,0002.55,0001.07
2021-10-30 17:18:00,,0825.2,5.01,0.00,30.2,27.6,00.0,39.4,31.7,10.2,0000.0,0009.21,0002.55,0001.08
2021-10-30 17:19:00,,0825.2,5.00,0.00,30.2,28.0,00.0,39.3,31.7,10.0,0000.0,0009.97,0002.59,0001.07
2021-10-30 17:20:00,,0825.2,5.00,0.00,30.2,28.3,00.0,39.3,31.8,10.0,0000.0,0010.16,0002.52,0001.06
2021-10-30 17:21:00,,0825.3,5.00,0.00,30.2,28.5,00.0,39.3,31.9,10.1,0000.0,0010.30,0002.52,0001.05
2021-10-30 17:22:00,,0825.2,4.99,0.00,30.2,28.7,00.0,39.3,31.9,10.1,0000.0,0010.21,0002.47,0001.05
2021-10-30 17:23:00,,0825.2,5.00,0.00,30.2,28.9,00.0,39.3,32.0,10.1,0000.0,0010.28,0002.46,0001.06
2021-10-30 17:24:00,,0825.3,5.00,0.00,30.3,29.0,00.0,39.3,32.0,10.2,0000.0,0010.67,0002.46,0001.04
2021-10-30 17:25:00,,0825.3,5.00,0.00,30.3,29.1,00.0,39.3,32.0,10.3,0000.0,0011.64,0002.49,0001.04
2021-10-30 17:26:00,,0825.2,4.99,0.00,30.3,29.2,00.0,39.3,32.0,10.1,0000.0,0011.57,0002.40,0001.04
2021-10-30 17:27:00,,0825.3,5.01,0.00,30.3,29.3,00.0,39.3,32.1,10.1,0000.0,0010.95,0002.30,0001.02
2021-10-30 17:28:00,,0825.2,4.99,0.00,30.3,29.4,00.0,39.3,32.1,09.7,0000.0,0010.60,0002.20,0001.00
2021-10-30 17:29:00,,0825.2,5.00,0.00,30.4,29.4,00.0,39.3,32.1,10.0,0000.0,0010.05,0002.12,0000.98
2021-10-30 17:30:00,,0825.2,5.00,0.00,30.4,29.5,00.0,39.3,32.2,10.0,0000.0,0008.83,0001.98,0000.97
2021-10-30 17:31:00,,0825.2,5.00,0.00,30.4,29.5,00.0,39.3,32.2,09.9,0000.0,0008.40,0001.94,0000.95
2021-10-30 17:32:00,,0825.2,5.00,0.00,30.4,29.6,00.0,39.3,32.2,09.9,0000.0,0007.98,0001.86,0000.95
2021-10-30 17:33:00,,0825.2,4.99,0.00,30.5,29.6,00.0,39.4,32.2,09.9,0000.0,0007.72,0001.80,0000.94
2021-10-30 17:34:00,,0825.2,5.00,0.00,30.5,29.6,00.0,39.4,32.3,09.8,0000.0,0008.17,0001.69,0000.91
2021-10-30 17:35:00,,0825.2,5.00,0.00,30.5,29.7,00.0,39.4,32.3,09.9,0000.0,0007.83,0001.59,0000.90
2021-10-30 17:36:00,,0825.2,5.01,0.00,30.5,29.7,00.0,39.4,32.3,09.8,0000.0,0007.07,0001.52,0000.87
2021-10-30 17:37:00,,0825.2,5.00,0.00,30.6,29.8,00.0,39.4,32.3,09.8,0000.0,0007.67,0001.47,0000.85
2021-10-30 17:38:00,,0825.2,5.00,0.00,30.6,29.1,00.0,39.5,32.2,09.6,0000.0,0007.61,0001.45,0000.83
2021-10-30 17:39:00,,0825.2,5.00,0.00,30.5,27.0,00.0,39.4,31.9,09.6,0000.0,0007.49,0001.41,0000.82
2021-10-30 17:40:00,,0825.2,5.01,0.00,30.3,26.4,00.0,39.4,31.7,09.9,0000.0,0007.48,0001.40,0000.81
2021-10-30 17:41:00,,0825.2,5.00,0.00,30.3,26.8,00.0,39.4,31.7,09.9,0000.0,0007.54,0001.42,0000.81
2021-10-30 17:42:00,,0825.2,4.99,0.00,30.2,27.2,00.0,39.3,31.6,09.7,0000.0,0007.53,0001.41,0000.80
2021-10-30 17:43:00,,0825.2,5.01,0.00,30.1,27.6,00.0,39.3,31.7,09.7,0000.0,0007.76,0001.42,0000.79
2021-10-30 17:44:00,,0825.2,5.00,0.00,30.1,28.0,00.0,39.2,31.7,09.7,0000.0,0007.94,0001.45,0000.78
2021-10-30 17:45:00,,0825.2,4.99,0.00,30.1,28.2,00.0,39.2,31.8,09.5,0000.0,0006.94,0001.44,0000.77
2021-10-30 17:46:00,,0825.2,4.99,0.00,30.1,28.5,00.0,39.2,31.9,09.6,0000.0,0007.21,0001.48,0000.76
2021-10-30 17:47:00,,0825.2,5.00,0.00,30.1,28.7,00.0,39.2,31.9,09.6,0000.0,0007.32,0001.46,0000.75
2021-10-30 17:48:00,,0825.2,5.01,0.00,30.2,28.8,00.0,39.2,31.9,09.3,0000.0,0007.59,0001.38,0000.75
2021-10-30 17:49:00,,0825.2,5.00,0.00,30.2,29.0,00.0,39.2,31.9,09.2,0000.0,0008.17,0001.34,0000.74
2021-10-30 17:50:00,,0825.3,5.01,0.00,30.2,29.1,00.0,39.2,32.0,09.4,0000.0,0008.47,0001.32,0000.72
2021-10-30 17:51:00,,0825.2,4.98,0.00,30.2,29.2,00.0,39.2,32.0,09.5,0000.0,0008.68,0001.28,0000.71
2021-10-30 17:52:00,,0825.2,5.00,0.00,30.3,29.3,00.0,39.2,32.1,09.6,0000.0,0009.20,0001.25,0000.70
2021-10-30 17:53:00,,0825.2,5.02,0.00,30.3,29.3,00.0,39.2,32.1,09.6,0000.0,0010.57,0001.31,0000.70
2021-10-30 17:54:00,,0825.2,5.00,0.00,30.3,29.4,00.0,39.2,32.1,09.6,0000.0,0010.75,0001.35,0000.70
2021-10-30 17:55:00,,0825.2,4.99,0.00,30.3,29.5,00.0,39.2,32.1,09.5,0000.0,0010.44,0001.28,0000.70
2021-10-30 17:56:00,,0825.2,5.01,0.00,30.4,29.5,00.0,39.3,32.2,09.4,0000.0,0010.44,0001.24,0000.70
2021-10-30 17:57:00,,0825.2,5.00,0.00,30.4,29.6,00.0,39.3,32.2,09.4,0000.0,0011.13,0001.26,0000.70
2021-10-30 17:58:00,,0825.2,5.00,0.00,30.4,29.6,00.0,39.3,32.2,09.4,0000.0,0011.37,0001.34,0000.70
2021-10-30 17:59:00,,0825.2,5.00,0.00,30.5,29.6,00.0,39.3,32.3,09.3,0000.0,0010.63,0001.42,0000.71
